GFSMA_con_mlcape_102.txt.gz
CAPE
275 185 237 139 190 0 78 410 470 560 560 409 880 494 752 574 132 288 43 432 1043 1471 1081 736 800 728 743 799 924 973 1011 987 1038 903 844 935 907 839 861 1002 1197 1142 867
200 176 19 0 86 0 11 324 691 641 382 193 413 623 576 430 59 112 244 353 539 503 901 780 772 682 661 758 866 729 732 710 749 895 964 862 850 934 1060 1100 1183 1213 1084
32 11 2 256 269 454 602 594 869 498 207 308 389 495 478 336 0 55 216 216 219 467 763 857 940 936 842 760 850 932 960 984 1127 1230 1119 1036 1037 1089 1168 1303 1439 1563 1535
72 8 173 215 278 411 634 767 690 562 272 338 227 261 368 311 200 140 94 95 163 256 278 401 773 854 843 1153 1428 1413 1254 1266 1294 1253 1181 1140 1175 1337 1527 1720 1893 1965 1832
462 404 302 372 472 460 602 695 592 642 667 533 461 454 359 310 338 346 306 175 139 224 308 290 293 378 764 1370 1533 1438 1427 1420 1307 1238 1269 1357 1462 1581 1672 1795 1888 1953 1964
681 496 480 718 822 558 550 687 726 504 570 355 453 556 581 534 437 368 386 324 243 253 254 313 400 510 574 903 1155 1316 1449 1555 1620 1695 1517 1396 1598 1640 1578 1530 1611 1683 1762
582 422 630 676 697 584 609 839 945 807 619 302 472 724 422 302 451 440 358 418 423 388 467 479 518 625 719 802 818 925 1203 1457 1629 1820 1905 1708 1553 1767 1621 1453 1666 1877 1955
294 411 582 607 686 706 801 888 799 501 324 493 648 450 380 156 179 161 226 360 420 359 446 507 596 707 758 857 900 987 1042 1067 1214 1598 1672 1688 1575 1655 1702 1547 1587 2020 2135
157 259 437 395 614 621 676 784 457 566 609 557 616 648 628 503 458 49 187 218 342 420 435 398 384 492 604 686 729 695 656 783 1097 1304 1350 1412 1570 1581 1667 1761 1654 2032 2149
666 450 384 498 441 419 304 769 765 768 814 840 634 706 565 688 876 337 97 164 174 265 288 218 195 292 412 416 431 361 484 793 1052 1013 1183 1476 1703 1774 1913 1950 1858 1785 2203
870 751 508 421 531 367 377 573 908 884 1001 996 934 1016 600 630 686 597 338 235 153 59 44 59 102 139 218 546 423 421 620 982 887 861 975 1004 1313 1541 1877 1880 1892 1455 2216
648 802 759 307 356 402 258 533 751 776 775 716 906 852 982 772 924 737 396 473 384 324 496 608 426 521 657 888 752 849 894 776 723 723 1022 1108 1241 1276 1411 1653 1488 1243 1804
598 599 829 412 228 374 252 444 733 642 654 826 746 471 682 700 612 693 352 226 312 324 555 714 1020 1006 1044 976 845 1049 987 853 790 707 507 412 396 390 565 1002 1038 927 1174
513 660 782 844 745 603 275 249 660 913 674 591 707 526 695 928 492 525 667 547 368 256 196 438 711 793 873 1003 1099 877 966 866 954 876 416 190 180 197 269 425 591 544 576
496 585 746 694 765 747 411 599 833 739 910 854 604 571 669 872 887 949 505 463 597 481 413 413 535 649 704 809 939 929 859 542 355 218 2 0 118 219 186 121 132 175 226
366 456 471 599 656 815 786 689 824 956 957 883 762 749 891 823 1008 859 1025 558 345 330 468 252 450 671 706 721 693 827 839 891 78 0 0 4 170 117 234 407 287 136 78
495 503 545 680 730 809 934 926 857 888 952 831 733 745 779 822 926 852 1142 871 731 467 250 354 389 491 423 522 585 776 1094 1159 486 40 33 23 122 191 215 114 111 50 30
498 472 569 716 758 807 895 892 948 878 869 814 781 690 719 665 618 708 678 522 558 633 538 410 538 510 477 700 825 917 914 491 208 159 141 58 100 238 178 117 35 0 1
525 393 331 525 636 608 682 684 692 944 828 757 573 527 788 630 809 889 842 589 707 715 768 910 966 828 844 812 720 482 350 373 379 263 273 149 304 257 60 57 56 0 0
569 377 379 374 309 184 122 290 432 589 812 949 800 732 776 687 756 900 1065 1127 1051 1003 1027 958 1093 1136 1011 1096 825 677 872 772 659 620 314 225 419 298 144 39 51 22 0
215 540 587 582 460 297 238 245 266 341 710 899 1041 1067 1025 930 863 975 1020 881 987 934 921 948 894 958 887 834 919 916 858 610 541 374 335 580 560 516 231 59 89 10 0
0 53 223 526 625 737 791 675 723 974 1114 1183 1310 1377 1259 1130 1012 944 808 869 968 1030 1126 1115 1073 851 784 770 796 749 653 572 463 550 654 564 984 396 247 48 9 0 0
0 0 1 68 199 395 224 295 416 647 759 959 1074 1093 1048 1133 1041 1047 933 766 836 836 938 1234 1143 1053 885 845 849 831 657 526 531 709 598 709 799 368 341 171 39 0 0
0 0 0 0 0 59 1 0 53 307 477 526 487 494 536 681 644 611 701 815 918 904 800 559 654 778 875 815 699 630 523 394 395 492 472 574 658 388 297 234 37 0 0
0 0 0 37 61 0 0 0 9 143 92 89 207 284 252 277 0 0 329 607 776 829 769 602 512 469 429 317 225 201 495 494 567 656 620 574 556 313 264 268 169 0 0
0 0 15 1 0 0 0 0 0 0 0 0 0 0 0 0 0 0 0 17 278 400 339 351 468 478 381 457 257 138 466 602 654 673 700 525 488 323 478 348 226 120 51

GFSMA_con_mlcape_105.txt.gz
CAPE
816 838 676 603 569 474 880 1135 1186 1296 1232 1019 1473 1151 1252 964 373 400 194 65 830 1216 1476 782 701 716 738 791 822 960 942 942 940 990 1058 1144 1161 1159 1205 1313 1355 1432 1552
771 619 146 480 263 587 781 1189 1408 1258 781 1058 1223 1271 1192 910 502 556 585 612 299 434 563 891 1109 1148 1073 1054 1074 967 966 987 1060 1227 1318 1268 1233 1232 1309 1410 1527 1626 1666
382 651 726 841 958 1156 1276 1403 1508 972 914 931 994 1114 1103 1025 648 534 759 734 618 308 393 749 870 852 927 1091 1360 1491 1455 1378 1449 1456 1449 1504 1553 1632 1741 1880 2002 2074 2103
382 329 804 911 966 1185 1437 1416 1290 915 990 1011 860 835 941 996 979 894 835 785 776 764 733 341 331 553 841 1245 1643 1635 1562 1671 1688 1608 1494 1558 1753 1742 1830 1926 2017 2098 2172
982 871 886 1011 1135 1219 1348 1320 1305 1399 1386 1153 954 984 1028 972 1036 875 1099 1017 861 844 965 805 517 584 735 1060 1389 1548 1631 1682 1773 1825 1893 1925 1726 1787 1872 1759 1777 1919 1957
1273 1066 1081 1409 1454 1140 1387 1534 1302 1275 1261 1047 853 1005 1148 1237 1188 1110 1091 1067 1068 1012 1062 1127 1277 1270 774 868 1055 1111 1231 1414 1588 1738 1920 1967 1971 1733 1887 1762 1623 2016 2154
1090 984 1435 1628 1387 1394 1355 1526 1419 1285 1068 1100 1408 1389 949 794 963 1144 1148 1091 1169 1172 1177 1379 1466 1467 1505 1112 1101 998 1049 1145 1275 1587 1721 1694 1728 1716 1694 1778 1672 1996 2210
999 1034 1335 1353 1419 1484 1460 1466 1187 915 1055 1187 1260 1117 927 639 928 746 742 939 1153 1175 1140 1201 1356 1488 1584 1657 1365 852 868 807 969 1376 1497 1596 1751 1868 1851 1755 1784 1666 2245
724 898 985 1100 1344 1470 1306 1264 1371 1163 1331 1236 1389 1395 1100 803 1200 524 656 774 882 1125 1211 1182 1019 1013 1349 1398 1260 1134 737 650 1033 1111 1205 1328 1422 1703 1784 1990 1969 1641 2041
917 868 1029 1065 1181 1114 1040 1568 1556 1490 1745 1596 1589 1342 1411 1537 1569 678 615 580 565 691 622 663 694 856 1028 1318 1143 831 721 767 913 884 1058 1438 1448 1571 1841 2079 2010 1815 1686
964 1066 1042 1210 1006 967 1103 1408 1579 1653 1619 1761 1785 1748 1483 1578 1435 1285 837 1013 874 981 1330 1230 879 967 1502 1746 1577 1307 769 841 833 810 974 731 707 837 1080 1641 1894 1764 1487
845 1103 1316 1114 1236 1167 881 1277 1677 1601 1447 1353 1628 1681 1538 1483 1608 1361 1089 1172 1050 1224 1619 1949 1945 1832 1882 1744 1375 1131 1153 900 795 809 429 317 349 428 592 1011 1352 1462 1305
1041 880 935 916 624 1096 982 1132 1328 1453 1579 1630 1260 1169 1487 1379 1571 1490 1433 1035 942 1036 1248 1643 1876 1842 1494 1885 1671 1005 1381 931 979 527 143 103 127 201 288 259 537 936 867
782 1062 917 982 999 1223 928 979 1313 1651 1380 1443 1390 1237 1412 1640 1426 1350 1421 1421 1195 1182 1023 1014 1427 1314 1421 1547 1514 1251 1390 291 30 3 3 1 111 48 205 412 427 348 381
811 1034 1187 1205 1295 1296 1149 825 1272 1216 1597 1524 1387 1307 1367 1520 1697 1876 1384 1082 1203 905 966 1063 810 1361 1265 1119 1244 1268 1766 1243 598 53 32 10 104 134 223 171 157 191 290
897 870 911 1092 1186 1294 1313 1116 1175 1241 1312 1517 1426 1220 1485 1520 1659 1714 1784 1601 1213 918 664 961 766 1118 1165 885 608 1334 1524 1386 1436 234 105 30 18 190 237 93 33 9 81
769 668 797 793 932 1077 1230 1414 1362 1239 1269 1632 1342 1286 1282 1566 1319 1438 1710 1847 1467 1307 791 550 1130 1067 1351 1671 1507 1646 1234 940 439 444 242 87 46 220 166 21 58 0 4
806 912 983 658 744 1072 1307 1227 1319 1392 1193 1139 1201 1300 1388 1343 1317 1330 1398 1489 1186 1408 1168 1217 1373 1386 1753 1948 1940 1998 1362 1377 1658 695 429 129 107 325 209 57 17 4 0
901 809 727 776 807 610 1025 1076 1045 1153 924 894 1172 860 982 1230 1057 1271 1427 1538 1080 1452 1528 1512 1447 1674 1877 1840 1900 1634 1880 1998 1308 600 319 219 333 271 361 107 26 0 0
963 763 770 745 804 710 620 547 784 750 799 863 819 1080 1032 1114 1022 1147 1286 1172 1059 1067 1209 1285 1429 1327 1435 1668 1692 1337 1209 1224 1141 894 410 505 685 779 724 303 96 15 0
577 833 892 759 738 612 529 630 692 828 746 1218 1186 880 1052 1080 886 968 1177 1166 1117 952 759 744 1005 1048 1101 951 989 1102 1087 899 542 576 889 646 605 856 566 422 262 29 0
147 412 625 783 820 790 207 293 638 1331 1375 1545 1590 1580 1370 1187 1016 667 624 558 724 1064 1127 796 968 1135 1644 1529 1057 1078 1015 831 588 512 983 787 815 886 760 538 143 7 0
52 74 129 282 308 111 0 42 167 1069 1201 1281 1250 1371 1144 1237 1199 1319 1150 827 774 601 582 1182 1278 1660 1659 1597 1516 1418 1086 1183 1063 932 847 849 866 907 880 624 295 14 0
0 45 139 192 0 0 0 0 114 716 823 625 592 536 648 299 1 0 478 1048 1351 1480 1643 1352 1206 1327 1506 1507 1612 1428 1336 1059 1071 1067 1190 1113 888 925 1045 988 558 85 0
0 54 71 3 0 0 0 0 0 1 0 0 0 0 0 0 0 0 6 42 313 893 1082 521 255 199 184 118 79 367 855 957 1094 891 942 1135 983 956 970 947 865 164 1
2 0 0 0 0 0 0 0 0 0 0 0 0 0 0 0 0 0 0 0 0 0 0 0 154 454 505 867 361 308 720 930 920 914 1087 1072 875 878 829 735 979 1003 947

GFSMA_con_mlcape_108.txt.gz
CAPE
977 891 1056 990 989 1148 1330 1466 1445 1583 1337 1169 1100 1086 964 900 627 193 17 2 248 622 1303 1057 768 803 840 892 890 1034 1056 1073 1109 1203 1353 1459 1467 1444 1498 1623 1738 1850 1868
964 837 642 810 891 1176 1307 1585 1738 1020 809 824 1020 948 995 868 927 681 347 329 68 163 302 567 829 1093 1154 1129 1171 1378 1455 1419 1406 1554 1559 1591 1677 1779 1863 1931 2028 2110 2140
1329 979 988 819 1195 1725 1854 1804 1235 1228 702 559 948 927 908 1047 811 907 703 538 683 343 329 554 770 784 740 970 1413 1754 1660 1614 1734 1834 1928 1873 1836 2019 2149 2180 2182 2231 2208
1152 1113 828 1077 1437 1555 1500 1118 844 739 820 891 1030 850 885 851 954 1006 862 867 874 745 884 641 536 610 766 1154 1610 1837 1822 1795 1811 1899 2068 2167 2154 2053 2096 2150 2039 1985 2124
1539 1046 1065 1383 1817 1484 1289 996 1005 1009 996 863 797 806 809 764 892 667 996 1137 985 1104 1141 933 759 773 903 1121 1202 1300 1361 1439 1487 1646 1889 2056 2073 2028 1936 2005 2017 1884 2156
1841 1385 1366 1671 1651 1357 1201 1195 1600 1318 1157 1035 617 664 756 918 1029 1044 950 899 1155 1342 1133 1465 1523 1429 962 942 1045 1099 1149 1207 1231 1610 1732 1748 1796 1805 1826 1837 1902 1930 2030
1757 1905 1382 1832 1610 1353 1788 1981 1414 1405 753 1220 1115 538 553 910 1071 972 973 1044 1126 1065 1049 1109 1800 1896 1963 1629 1505 1081 947 1043 1133 1397 1399 1581 1687 1955 2042 2031 1931 1909 1787
1817 1488 1490 1310 1637 1223 1029 1841 1956 654 929 1708 1174 902 433 364 595 636 839 877 1097 1164 1299 1454 1701 1846 2055 1877 1716 1122 1033 795 951 1208 1358 1453 1536 1461 1721 1838 2035 1980 1895
1467 1435 1139 1473 1229 1406 1180 1614 1713 1811 916 1616 2226 1623 588 623 507 408 748 704 1151 1235 1367 1394 1287 1325 1874 1934 1760 1520 863 744 852 1066 1192 1366 1383 1349 1446 1753 1996 2003 1916
1179 1253 1635 1463 1528 1410 1753 1681 1641 1722 2264 1332 1753 1918 2285 2365 886 452 419 582 731 747 1125 1089 1002 1320 1872 1856 1716 1524 844 986 961 1011 1065 670 619 797 984 1327 1796 1842 1851
1117 1144 1581 1822 1826 1374 1721 1860 2043 2259 1648 1686 1713 1929 2134 1918 1931 858 592 622 464 1096 1481 1394 1375 1507 2024 2090 1669 1172 1161 1022 894 932 729 428 357 517 587 650 1120 1471 1535
997 1297 1517 1704 1857 1634 1599 1465 2166 2106 2112 2051 1886 1888 1664 1623 1464 1138 854 1032 936 1310 1429 1661 1765 1859 1879 1692 1532 1125 963 861 798 316 62 14 199 202 427 657 732 860 1190
850 1037 1233 1384 1112 1830 1775 1558 2011 2064 1914 1832 1980 1376 1596 1582 1646 1699 1464 1229 1018 1172 1299 1497 1600 1587 1340 1415 1329 848 1005 540 69 12 1 5 150 165 319 356 575 722 894
727 964 1000 852 1170 1599 1554 1703 1375 1300 1298 1438 1857 2004 1352 1405 1429 1537 1422 1324 1188 1223 1215 1409 1251 1370 1230 1158 990 679 471 1217 1127 786 78 72 49 222 308 74 102 167 317
1095 1138 1058 1006 1133 1104 1552 1524 1076 1267 1571 1698 1246 1523 1435 1263 1254 1348 1420 1220 1154 669 697 1486 1084 1029 1036 526 510 787 732 820 807 1295 246 190 18 61 252 6 23 48 39
1318 1108 965 985 1230 1521 1654 1338 1092 1097 1298 1184 1047 1448 1331 962 1297 1208 1131 1085 1052 928 740 635 703 1024 1339 1394 585 903 963 1008 941 492 312 249 96 189 349 142 10 26 13
1076 951 981 995 819 1109 1430 1552 1290 1112 1267 1296 1208 1378 1260 1390 809 707 856 870 688 652 707 388 535 607 1230 1491 1693 1889 1273 701 492 547 480 275 128 140 183 269 17 10 3
906 765 845 995 1045 1092 1311 1281 1203 1021 1246 1208 1202 1242 1191 1036 1622 1372 971 806 797 1019 793 629 733 666 938 1442 1479 2073 1482 819 770 495 188 240 190 313 538 564 86 0 0
656 821 818 820 743 932 938 912 1172 1157 1192 1001 923 998 1127 1162 1398 1197 1471 1023 816 840 985 954 853 598 683 1067 1095 1084 992 882 496 218 120 68 247 469 603 584 81 36 0
658 690 688 757 664 1056 874 1031 961 902 948 982 1044 985 1047 1053 1132 1306 1264 1404 1263 1233 853 1042 676 565 514 657 945 484 357 349 392 293 181 328 348 348 521 389 195 84 0
920 957 784 872 904 885 739 1307 1314 1319 1426 1205 1289 1250 1025 1005 808 822 986 1006 1211 1099 880 761 631 503 513 1233 677 553 374 296 345 299 262 464 292 364 453 312 266 152 0
912 1183 1171 1041 1019 827 35 188 504 1515 1405 1320 1252 1299 1194 1137 1137 1045 725 674 764 1157 1240 1103 658 546 830 1048 688 637 921 814 885 862 1122 884 702 524 494 413 309 196 0
415 501 840 833 202 49 0 21 118 946 1305 1246 1324 1479 1400 566 488 925 1278 950 882 834 830 1267 1167 1286 1332 1388 1434 1690 1478 1488 1416 1297 1307 938 872 679 584 591 558 550 69
276 321 166 50 0 0 0 13 301 1113 733 312 237 158 92 2 0 0 318 1056 1349 1383 1315 1609 1750 1726 1760 1437 1420 1360 1261 1444 1400 1358 1180 935 664 607 659 666 800 564 214
166 52 0 0 0 0 0 0 32 143 101 79 1 0 0 0 0 0 1 94 214 533 755 235 116 112 172 265 299 698 976 954 988 1090 1185 1045 1008 837 932 744 761 574 329
1 0 0 0 0 0 0 0 0 0 0 0 0 0 0 0 0 0 0 0 0 0 0 0 0 119 315 637 281 671 976 811 952 850 1059 928 1041 987 1074 775 897 891 1041

GFSMA_con_mlcape_111.txt.gz
CAPE
740 1050 1093 1056 1205 1220 1038 1034 944 943 767 744 566 622 388 452 176 0 0 11 120 392 849 897 772 909 1039 1161 1108 1164 1263 1388 1449 1549 1713 1776 1788 1871 2009 2116 2169 2217 2229
1149 950 1100 929 1023 1155 1334 1260 1569 772 619 352 743 717 549 434 638 305 89 74 0 28 149 361 571 760 860 957 1116 1481 1700 1665 1757 1946 2023 2094 2048 1945 2054 2306 2345 2330 2355
1426 929 838 882 1077 1218 1617 981 872 757 290 240 670 765 626 646 578 827 497 364 313 245 375 461 524 677 800 977 1458 1832 1939 1967 1955 1981 2105 2323 2408 2403 2313 2272 2322 2266 2169
1352 1514 938 1007 1180 1377 1026 691 769 371 375 412 648 752 575 509 662 901 728 812 901 789 680 654 637 675 803 1063 1393 1527 1589 1589 1573 1670 1888 2055 2166 2281 2333 2238 2133 2172 2013
1648 1255 873 1419 1640 835 729 552 561 958 355 394 575 674 627 412 820 723 835 992 844 1204 1101 698 691 717 769 1031 1235 1303 1355 1358 1349 1565 1749 1826 1868 1969 2051 2117 2072 2030 2022
1551 1693 1349 1314 2050 1110 549 1522 1932 657 842 647 694 629 717 761 783 806 756 852 940 1254 1102 1394 1774 1819 1120 1206 1187 1099 1106 1150 1248 1481 1419 1559 1686 1770 1873 2075 2138 2139 2037
1611 1891 1552 1555 2022 1154 1453 1077 1060 969 883 524 1078 471 645 880 1009 843 901 935 785 995 812 950 1970 2005 1966 1943 1737 1321 1243 1032 1155 1215 1467 1542 1772 1834 1747 1703 1800 1965 2102
1773 1588 1843 1589 1676 1109 1345 1808 1763 744 601 1065 1695 571 451 515 612 685 801 778 1005 950 1149 1426 1706 2000 2101 1883 1937 1473 1205 853 1011 1342 1438 1131 913 981 1072 1157 1474 1912 2151
1585 1745 1584 1907 1732 2086 1082 1749 1131 1505 1251 960 1861 2103 955 751 538 552 720 814 1025 1169 1256 1366 1304 1346 1774 2016 1886 1693 1142 933 1056 1235 1326 732 575 649 676 571 727 1529 1881
1203 1331 1551 1579 1751 1038 1590 1343 1246 1961 2072 1019 974 1397 2148 2154 2030 429 428 558 741 875 983 1030 920 1467 1847 1777 2053 1316 998 979 1116 1101 686 305 258 396 387 672 945 912 1534
1406 1248 1502 1567 1673 1697 1793 2143 1826 2441 1714 1950 1480 1297 1466 923 689 1167 774 667 401 855 1247 1281 1129 1367 1982 2189 1754 1410 906 730 410 98 7 42 155 238 475 646 934 1143 1425
1011 1325 1347 1682 1845 1847 1703 1622 2055 2020 2511 2207 2311 1868 1412 1417 1253 1311 879 526 1036 1136 1072 1267 1364 1417 1525 1480 1359 1050 682 578 283 356 285 107 75 237 513 517 358 590 914
772 1451 1467 1604 1429 1871 1848 1643 2021 1982 1920 2062 2203 1920 1221 1388 1218 1307 1186 1134 812 998 1076 851 1278 1237 1345 1185 1153 935 593 548 1013 874 825 128 128 58 272 383 97 246 427
537 1385 1155 1453 1279 1543 1651 1796 1557 1540 1362 1517 1853 2164 1929 1173 1118 1136 1024 960 909 1074 655 1115 1062 1135 1384 1100 538 412 455 578 731 399 987 199 160 8 140 416 199 48 168
760 1054 831 930 1219 1478 1454 1668 1247 1367 1957 1739 1402 1639 1549 1094 917 1077 1045 958 891 581 522 1854 875 1389 1271 1095 842 1083 968 792 428 705 834 197 140 89 155 221 236 32 71
1534 1213 1044 1000 1238 1362 1547 1528 1340 1417 1326 1288 1057 1148 1735 958 1177 876 820 794 764 770 645 486 451 701 1514 1381 878 1388 1357 1206 845 582 473 256 141 42 91 300 391 46 27
1305 1417 1242 1118 1252 1268 1303 1482 1579 1445 1396 1189 1139 1250 1217 1367 1113 580 684 580 452 358 472 506 392 261 749 1368 1351 1706 1105 1520 539 391 370 162 196 97 242 466 481 28 0
1088 1147 1298 1366 1128 1252 1296 1440 1256 1057 1159 1234 1126 976 928 669 1288 1445 655 625 507 584 417 546 461 804 712 1046 1213 1770 1066 829 642 478 186 125 148 205 242 387 405 6 0
1173 1040 1135 1259 1430 1424 1582 1658 1460 1410 1402 1171 1085 1058 988 973 1458 1414 1632 1115 771 1045 1185 958 734 411 618 728 901 1147 1367 775 373 168 137 48 221 200 261 281 308 97 11
978 1011 1130 1050 1070 1165 1386 1290 1206 1296 1215 979 921 929 1036 1047 1139 1402 1377 1378 1318 1134 964 844 758 506 462 1125 1441 474 449 284 314 410 306 320 321 368 252 276 271 184 30
739 765 881 855 1003 951 816 924 1276 1329 1305 1101 1027 1174 1117 1085 841 726 703 867 1439 962 1130 870 647 483 378 1078 409 593 589 598 910 921 1231 1222 831 641 465 289 373 233 42
895 805 758 830 971 91 7 47 233 1075 1273 1259 1146 1230 865 1139 1489 772 889 699 717 1046 1366 1205 1081 742 1017 1139 1073 1238 1418 1337 1201 1271 1544 1424 1371 612 476 465 392 423 310
681 766 977 634 194 0 0 0 69 530 989 1235 1310 1800 1631 558 273 581 929 669 867 833 691 999 1156 1479 1317 1490 1550 1748 1584 1624 1409 1370 1498 1614 1264 1164 1045 574 390 426 396
337 564 197 14 0 0 0 0 64 1212 745 656 531 435 316 10 0 0 0 695 1038 1056 1245 1240 1559 1430 1351 970 677 1019 1246 1081 1422 1300 1236 1154 1403 1419 1392 1460 809 441 506
84 50 12 0 0 0 0 0 113 495 442 163 0 0 0 0 0 0 0 0 17 206 179 0 0 0 0 0 148 523 844 823 783 883 1107 1056 1030 994 1338 1032 1204 678 536
8 0 0 0 0 0 0 0 0 72 129 57 11 0 0 0 0 0 0 0 0 0 0 0 0 60 119 389 182 322 529 611 408 354 568 474 464 471 485 679 818 977 1091

GFSMA_con_mlcape_114.txt.gz
CAPE
1027 869 957 871 565 661 324 870 635 519 685 681 682 290 366 321 25 0 0 2 167 246 413 445 480 718 941 1078 1089 1222 1467 1685 1737 1872 2033 2111 2184 2247 2222 2302 2359 2323 2370
1001 870 1049 1024 634 543 1108 609 1122 844 857 445 740 724 462 547 728 0 0 0 0 0 8 194 388 534 639 852 1105 1579 1859 1929 1987 2113 2190 2292 2418 2494 2497 2429 2389 2349 2234
1516 1229 944 959 821 862 1146 804 940 694 633 686 550 805 581 543 668 666 94 2 0 4 47 241 417 573 787 1009 1325 1581 1700 1709 1786 1749 1856 1987 2059 2161 2307 2407 2403 2229 2277
1448 1538 865 1021 834 852 1509 1387 994 953 529 864 796 861 721 565 785 915 821 696 576 410 451 574 660 696 744 887 1163 1366 1376 1442 1394 1487 1709 1719 1895 1973 2058 2209 2337 2330 2165
1395 1689 1727 777 594 1204 1300 1472 806 833 446 595 628 695 739 449 790 813 929 1077 1025 1291 917 473 779 650 781 1134 1220 1187 1159 1215 1215 1341 1439 1578 1801 1973 2007 1980 2019 2203 2209
1541 1709 1494 915 1610 1177 182 1005 558 676 1369 543 708 540 736 873 754 670 908 1050 857 991 1315 1432 1254 1360 964 1372 1560 1261 1282 1290 1180 1189 1357 1494 1225 1143 1166 1207 1349 1748 2052
1294 1936 1780 1113 0 516 1500 1394 632 1466 1091 258 1856 601 855 937 1018 1000 858 931 534 1135 736 979 1697 2196 1579 1697 1832 1560 1424 1047 1207 1331 1459 1042 751 739 731 741 911 1189 1823
1405 1766 1510 1380 793 870 1382 1280 1364 1711 1373 1002 1270 1950 662 904 906 857 896 691 686 704 785 1024 1782 1813 1811 1975 2016 1480 943 948 1265 1376 1384 737 430 385 342 659 1163 1229 1329
1502 1689 1419 1290 830 844 1218 1535 2041 1817 1933 705 1616 1950 1542 943 660 541 453 955 432 1039 1073 1049 1216 1420 1698 1930 1939 1438 630 809 940 710 262 142 125 223 320 616 838 1057 1277
1181 1284 1458 1341 49 0 853 1819 1637 1758 2426 2180 1690 1312 34 384 1308 812 710 605 658 835 756 577 1142 1423 1760 1840 1599 996 612 604 447 162 216 388 309 228 435 796 657 858 911
1260 1174 1410 1427 848 626 1032 2166 1718 1972 2316 1255 1631 2557 1040 1672 430 1151 609 345 431 778 1060 1036 633 1757 2064 1805 2064 980 723 422 363 517 653 545 240 199 311 678 829 653 875
1113 952 1320 1425 979 1089 1453 1567 1851 2076 1915 572 919 2387 792 739 323 1001 433 38 620 910 1216 1372 1305 923 945 1450 1081 809 347 388 343 866 539 717 182 168 58 359 759 729 563
1095 846 1141 1247 1381 1339 1481 1595 1917 1934 1828 1788 1895 1992 1043 221 5 105 354 1 2 445 230 0 504 310 1233 1012 773 539 905 431 557 650 361 723 154 98 61 172 322 615 292
992 1195 1088 1292 1162 1241 1458 1552 1581 1375 1699 1664 2046 1726 1412 1626 1205 866 1098 728 1046 677 29 0 417 323 1512 1474 1093 1125 1092 1236 894 681 535 698 218 66 19 108 393 406 96
896 1298 1122 1177 995 1019 1366 1366 1273 1142 1247 1780 1238 1414 974 1158 1362 1453 691 805 928 781 861 528 849 1232 1051 857 1090 1422 1455 961 966 1021 815 529 247 112 86 230 503 312 18
39 0 922 776 990 968 859 1177 1035 1090 1082 1305 1258 1287 1711 1607 1455 1301 1090 1029 756 589 593 703 555 434 912 689 995 1165 1794 1089 1027 1240 386 474 221 137 135 220 438 213 26
44 800 1116 1095 1020 1054 844 1089 1067 763 1161 1326 1296 1131 1030 980 992 794 612 330 112 282 265 224 246 253 520 804 1405 1429 1772 1246 1148 535 371 232 215 128 175 194 314 184 43
1128 894 1296 1205 1280 1152 1024 1177 1042 1039 831 868 1179 1246 813 892 1178 1431 1537 1714 1359 876 976 969 1173 539 514 483 1405 1409 1363 1335 827 356 245 245 146 180 234 198 209 226 92
1093 1153 976 1135 1178 956 1001 803 1212 1196 995 1084 765 813 709 987 1000 1160 1030 1241 1216 1341 946 1396 719 944 912 1409 857 771 416 1103 785 538 863 913 583 490 371 273 97 228 137
733 847 857 981 1062 771 880 894 1381 1034 1263 949 1103 728 596 772 790 885 1084 939 1221 894 725 1143 933 788 822 1138 1080 1284 1246 1836 1394 1436 1532 1602 1203 1044 1168 346 216 264 181
1004 933 776 855 968 504 115 233 415 604 935 862 979 1049 968 782 540 580 624 722 810 960 1056 676 822 769 1276 1032 1006 1636 1226 1337 1580 1565 1648 1288 1530 1854 1698 397 354 346 275
482 578 667 761 235 0 0 0 83 122 532 330 704 733 454 218 483 497 755 836 745 645 512 572 870 857 1016 1370 1324 1363 1293 1239 1096 1463 1485 1340 1418 1514 1675 827 684 390 336
531 542 536 154 0 0 0 0 6 284 568 1042 991 678 598 9 0 7 52 269 948 764 708 846 927 1025 1021 979 1226 810 527 1102 1164 1093 1239 1205 1433 1438 1399 1497 738 318 252
258 61 8 0 0 0 0 0 0 622 701 326 164 238 0 0 0 0 0 125 189 331 430 150 23 0 0 0 83 332 662 763 810 538 519 681 927 598 523 588 714 662 415
0 0 0 0 0 0 0 0 152 582 140 0 0 0 0 0 0 0 0 0 0 0 0 0 0 0 0 0 0 0 288 275 281 221 190 0 54 46 71 401 563 158 583
0 0 0 0 0 0 0 0 0 103 176 19 0 0 0 0 0 0 0 0 0 0 0 0 0 34 20 91 0 0 0 0 0 0 0 0 0 0 49 371 146 238 378

GFSMA_con_mlcape_117.txt.gz
CAPE
811 509 625 273 176 640 660 482 533 837 701 548 122 98 31 0 0 0 0 0 2 173 163 108 137 328 553 794 1007 1207 1597 1910 1959 2032 2188 2367 2521 2586 2417 2422 2250 2264 2293
1001 1165 364 679 269 389 554 675 616 650 363 407 294 85 204 23 0 0 0 0 0 0 13 110 215 323 468 697 1050 1427 1752 1904 1884 1918 1995 2087 2144 2276 2210 2155 2198 2156 2184
673 613 828 796 703 455 949 943 855 1069 529 332 464 283 215 295 17 0 0 0 0 0 3 67 236 389 598 872 1175 1357 1489 1484 1500 1603 1729 1738 1771 1941 2159 2212 2261 2340 2383
1142 1410 429 619 1072 1360 1345 1300 1195 949 610 258 423 396 330 297 516 157 2 1 0 0 107 327 488 619 766 931 1058 1195 1307 1318 1413 1547 1561 1623 1697 1725 1703 1755 1843 1984 2117
1187 1564 1571 1123 662 957 584 606 549 593 677 500 522 605 343 311 541 783 423 526 277 341 75 375 631 584 707 1203 1385 1367 1352 1316 1364 1433 1569 1391 972 946 937 887 921 1158 1800
1447 1271 809 80 185 477 658 1315 653 1162 1095 389 704 536 384 339 600 644 597 934 721 828 630 533 654 945 1048 975 1491 1666 1454 1226 1221 1361 1436 996 662 589 538 686 1125 1274 1340
1354 1476 629 0 17 374 618 816 825 1316 1402 1096 1448 876 693 619 587 470 642 757 524 759 1033 732 1157 1360 1497 1456 1376 1639 1211 982 1159 1209 817 241 160 368 544 734 618 1054 1311
1057 1298 722 22 9 573 1242 1431 1330 1639 1353 435 1024 1775 457 535 748 769 696 686 601 581 797 656 824 1482 1555 1472 1789 1232 697 960 818 473 223 384 442 342 470 812 460 694 1069
1529 1339 943 223 182 589 601 1369 1946 1637 1446 1210 573 1236 1115 910 885 625 459 570 452 643 515 626 1012 1386 1280 1929 1452 744 740 565 459 388 606 685 457 290 281 700 817 642 850
1174 1220 1272 763 514 0 584 1069 1798 1846 1536 1300 165 732 138 245 765 825 564 376 153 559 263 523 827 1200 1451 1713 930 721 490 423 281 453 760 705 482 306 186 494 800 697 656
873 865 1258 1015 226 297 873 1307 1725 1445 479 410 769 1298 943 290 511 325 530 354 0 189 240 5 475 894 1431 1181 770 393 521 447 301 526 590 564 539 259 164 361 679 964 596
985 921 1007 862 684 835 933 1540 1689 1559 776 0 686 1148 207 551 150 82 1 0 0 2 0 0 2 304 0 546 610 610 775 572 517 636 528 401 686 247 134 245 707 869 437
681 637 1071 836 591 933 1036 1572 1651 1677 1766 1293 1336 1129 801 38 10 142 39 1 0 93 41 0 0 212 573 708 900 1041 834 751 612 789 868 859 625 386 132 178 532 553 145
443 838 850 940 1201 1311 1005 1544 1272 1386 1421 1688 1478 1539 1326 961 317 201 225 92 72 289 18 23 47 429 544 897 989 993 884 985 911 829 870 694 413 324 150 144 331 322 27
792 809 702 651 754 1092 1012 1234 1276 1137 960 1602 1156 1362 1447 1610 1241 1027 605 390 785 568 467 559 394 803 798 424 726 892 925 1047 1230 1084 737 382 242 232 153 147 192 295 36
390 237 255 563 750 882 1142 1109 1044 918 1248 1129 1115 1145 1436 1432 568 755 619 925 215 249 71 271 506 615 822 619 498 741 1052 1037 1180 1076 391 328 284 241 180 140 141 323 63
0 0 111 513 596 969 660 956 690 683 766 850 965 1014 1040 820 778 811 1076 1299 1200 888 434 368 633 548 552 852 941 1390 1918 1407 1261 900 679 458 621 270 282 247 125 215 110
2 362 486 908 872 756 1034 957 1194 674 883 811 1073 990 942 1006 825 1413 902 651 971 1099 750 659 634 620 436 788 637 979 1326 1402 1189 1243 775 1200 1105 999 1062 974 396 147 148
500 672 657 1036 880 1135 905 757 647 849 974 859 773 589 843 819 932 712 520 499 780 693 632 701 629 603 623 1043 955 829 820 879 1036 884 1051 1275 922 1118 1364 1036 461 151 173
796 888 998 844 854 588 445 718 649 924 723 816 734 879 774 659 964 803 579 696 803 525 460 408 450 404 547 1092 1029 844 645 862 595 780 1068 1168 1143 1219 1427 390 188 172 181
619 571 577 565 142 104 23 128 472 400 281 262 178 441 240 315 367 292 376 339 300 207 205 167 144 282 483 506 736 901 608 361 604 981 810 853 1102 1299 934 696 683 332 150
338 347 360 74 0 0 0 0 20 90 1 4 0 4 24 0 0 8 77 228 345 544 601 722 632 650 574 356 101 241 258 512 541 647 574 635 933 699 528 627 602 439 396
198 60 3 0 0 0 0 0 0 70 175 62 0 128 2 0 0 0 0 85 110 119 248 342 113 4 0 0 0 37 131 270 310 370 79 231 89 0 0 71 141 115 305
0 0 0 0 0 0 0 0 0 185 4 5 0 0 0 0 0 0 0 0 0 0 0 0 0 0 0 0 0 0 0 0 0 14 0 0 0 0 0 32 6 15 0
0 0 0 0 0 0 0 0 139 14 0 0 0 0 0 0 0 0 0 0 0 0 0 0 0 0 0 0 0 0 0 0 0 0 0 0 0 0 0 19 0 0 0
0 0 0 0 0 0 0 0 0 2 0 0 0 0 0 0 0 0 0 0 0 0 0 0 0 0 0 0 0 0 0 0 0 0 0 0 0 0 0 0 0 0 0

GFSMA_con_mlcape_123.txt.gz
CAPE
231 286 502 481 37 407 381 462 424 495 484 407 284 275 483 249 19 0 0 226 224 323 365 394 411 483 617 885 1199 1518 1836 2135 2356 2495 2313 2066 1910 1917 1902 1740 1755 1859 1926
328 417 372 134 220 236 172 610 687 480 685 225 54 35 104 17 0 0 7 62 223 112 268 410 520 609 746 987 1224 1520 1745 2008 2197 2218 1963 1917 1776 1691 1582 1606 1671 1776 1964
564 327 202 436 611 673 856 1073 1003 923 852 142 42 0 0 0 0 0 0 7 13 57 169 284 444 548 655 875 1227 1571 1785 1924 2033 1971 1891 1613 1304 1120 1160 1114 1144 1477 1320
521 517 470 574 951 743 554 836 792 700 498 363 274 14 8 6 14 9 0 0 0 4 18 90 271 517 800 1167 1464 1777 1927 2256 2157 1851 1659 1139 723 710 782 989 832 1082 1349
828 878 764 749 643 578 881 865 1264 490 345 230 235 189 92 72 31 46 49 21 16 13 2 0 58 259 611 1261 1803 1477 1676 1923 1857 1553 1188 662 561 544 689 962 785 854 1093
898 686 451 176 384 613 679 1026 1112 641 322 287 283 455 309 109 58 209 282 118 44 93 107 240 343 406 611 851 1441 1664 1531 1492 1506 972 800 822 626 540 560 753 881 780 781
468 440 278 0 257 857 1169 1518 1276 530 485 721 787 464 315 243 81 167 245 280 306 389 375 369 416 546 645 694 1375 1653 1463 1239 1071 883 744 948 750 423 405 515 761 1051 760
682 808 497 0 382 539 1049 1560 1281 806 515 562 872 596 403 326 266 185 249 295 321 381 487 593 663 643 641 864 1227 1270 1002 886 751 735 674 965 862 593 411 462 896 1058 700
804 691 235 0 190 183 809 1202 1353 1050 911 405 403 820 479 468 776 166 170 309 356 283 419 540 638 1025 1056 1123 1082 492 547 552 640 682 604 1036 950 913 746 514 941 826 599
979 768 397 0 169 15 847 1333 879 816 594 492 649 119 137 182 485 448 163 57 5 217 84 336 284 1083 1364 1023 710 620 608 845 747 799 717 903 1136 1108 1057 545 799 685 446
885 650 727 443 2 185 938 1291 892 66 479 538 702 353 148 124 47 50 146 287 1 3 40 3 0 194 630 589 620 637 955 1012 920 1034 1156 1108 1070 1026 883 725 514 786 316
735 840 823 597 87 481 902 1141 931 96 63 558 631 203 281 476 45 79 28 8 0 0 71 3 16 102 73 306 426 587 727 899 928 1000 706 432 461 480 486 539 330 693 318
641 736 769 660 414 664 941 1125 1001 719 213 685 966 448 129 230 171 133 136 102 4 0 145 60 5 0 17 252 449 620 630 722 1010 673 742 810 771 576 604 567 376 205 216
489 545 712 711 448 406 804 1047 1073 951 872 995 955 851 597 241 188 223 203 159 452 270 167 262 99 315 385 520 670 910 1060 1000 722 914 1040 740 830 1001 1141 1127 780 149 102
335 377 634 736 553 686 739 910 956 672 692 1017 904 763 887 525 279 301 155 139 180 222 265 42 237 402 564 727 999 965 990 979 616 772 751 772 1010 758 588 814 596 117 76
353 580 475 598 675 706 734 675 789 868 612 966 827 721 883 692 383 476 417 469 151 256 64 7 462 425 666 799 768 635 638 431 511 739 718 882 579 432 37 110 122 58 57
325 429 436 427 462 498 599 795 815 650 551 681 698 590 581 502 518 558 610 686 657 376 337 334 362 541 784 623 646 523 505 401 683 669 734 630 433 265 23 1 3 68 16
258 245 196 175 375 492 583 625 795 658 363 500 474 528 552 568 596 549 519 464 407 481 348 229 341 394 300 527 526 276 269 627 503 701 611 444 97 127 8 47 0 0 0
337 169 43 0 218 511 538 669 657 689 785 440 574 564 583 534 541 619 426 302 432 344 376 269 36 119 270 359 169 189 312 522 231 69 60 0 0 0 0 0 0 0 0
325 163 51 137 503 676 729 737 705 626 698 721 578 434 415 510 599 591 457 413 408 223 110 0 26 225 358 51 69 124 123 274 69 0 0 0 0 0 0 0 0 0 0
474 370 367 381 295 289 175 257 382 492 470 436 209 107 87 95 110 185 267 252 252 100 143 175 252 231 77 0 3 68 93 114 96 0 0 0 0 0 0 0 0 0 0
331 273 299 237 162 38 6 0 0 189 204 143 118 23 4 6 29 61 59 109 180 189 197 233 9 0 0 0 0 0 0 0 0 0 0 0 0 0 0 0 0 0 0
87 46 33 2 0 0 0 0 0 7 66 28 8 0 0 0 0 4 0 0 0 0 0 0 0 0 0 0 0 0 0 0 0 0 0 0 0 0 0 0 0 0 0
14 0 0 0 0 0 0 0 0 17 1 0 0 0 0 0 0 0 0 0 0 0 0 0 0 0 0 0 0 0 0 0 0 0 0 0 0 0 0 0 0 0 0
0 1 0 0 0 0 0 0 1 0 0 0 0 0 0 0 0 0 0 0 0 0 0 0 0 0 0 0 0 0 0 0 0 0 0 0 0 0 0 0 0 0 0
0 0 0 0 0 0 0 0 0 0 0 0 0 0 0 0 0 0 0 0 0 0 0 0 0 0 0 0 0 0 0 0 0 0 0 0 0 0 0 0 0 0 0